Location: Croisilles
(50.1998°N, 2.8793°E)
Time: 20:46:52
(UTC+00:00)

Cosmos 1428 Rocket - Pass Details

Date: 21 January 2021
Orbit: 947 x 989 km, 82.9° (Epoch: 01 March)

Event Time Altitude Azimuth Distance (km) Brightness Sun altitude
Rises 18:50:44 0° 181° (S) 3,672 7.6 -23.1°
Reaches altitude 10° 18:53:14 10° 180° (S) 2,733 6.9 -23.5°
Maximum altitude 18:59:29 75° 96° (E) 1,024 4.4 -24.5°
Drops below altitude 10° 19:05:49 10° 12° (NNE) 2,762 6.7 -25.5°
Sets 19:08:21 0° 11° (NNE) 3,714 7.4 -25.9°
